STARLINK-36167

Last updated on Fri Dec 19 2025 00:02:09 GMT+0000 (Coordinated Universal Time)

1 67011U 25293J 25351.83335648 -.00963479 29883-3 -21610-2 0 9997 2 67011 69.9933 309.0226 0004126 267.6668 122.1597 15.97527007 2385
UTC large
Height (km)
Speed (km/s)
/
Latitude / Longitude
Inclination (degrees)
Orbital Period (minutes)
Azimuth
Elevation
Range (km)
Doppler Factor

Next 0 passes for location: London (51.5072 / 0.1276)

Sorry there are no passes over London.